Objednávky 2017

Zverejnené Dátum vyhotovenia Číslo objednávky Predmet objednávky Dodávateľ Celková cena (s DPH)
21.12.2017 21.12.2017 20171812 Stojany na noty, činel, Soundking Duo RH, s.r.o., Nám.Osloboditeľov 86/22, Lipt. Mikuláš 324.5 €
21.12.2017 21.12.2017 20171312 Šitie -oprava rekvizít a vejárov Čalúnnictvo Geroč Vladimír, J.Rumana 26/16 32 €
21.12.2017 21.12.2017 20171912 Knihy Artforum, s.r.o., Kozia 20, Bratislava 148.11 €
15.12.2017 15.12.2017 20171312 Stoličky rokovacie - LDO Daffer, s.r.o., Včelárska1, Prievidza 1100 €
14.12.2017 14.12.2017 20171412 Časopis Hudobný život 2-12 2018 Slovenska pošta a.s. Partizánska cesta 9, Banská Bystrica 17.92 €
07.12.2017 07.12.2017 20170712 Hlina -šamot- VO PECE s.r.o., Nábrežná 678/7, očová 387.36 €
29.11.2017 29.11.2017 20172911 Tonery, dátumovka, etikety VOVA, s.r.o. , Borbisova 1, Lipt. Mikuláš 60.8 €
29.11.2017 29.11.2017 20172911 Stravné lístky Doxx DOXX-stravné lístky, s.r.o., Kálov 356 , Žilina 1014 €
23.11.2017 23.11.2017 20172211 Čistiace prostr. KAJO, Krupa Kajo, s.r.o., M.R.Štefánika 2267, Dolný Kubín 74.24 €
13.10.2017 13.10.2017 20171310 Čiastiace prosstriedky KAJO, Krupa Kajo, s.r.o., M.R.Štefánika 2267, Dolný Kubín 105.9 €
12.10.2017 12.10.2017 20171210 Online knižnica VerlagDashofer 197.38 €
18.09.2017 18.09.2017 20171809 Gitary, paličky, struny, púzdro na malý bubon Duo RH, s.r.o., Nám.Osloboditeľov 86/22, Lipt. Mikuláš 237.2 €
13.09.2017 13.09.2017 20171309 Náplne do tlačiarne, nabíjačka, toner VOVA, s.r.o. , Borbisova 1, Lipt. Mikuláš 108.66 €
01.09.2017 01.09.2017 20170109 DVD médium VOVA, s.r.o. , Borbisova 1, Lipt. Mikuláš 8.5 €
31.08.2017 31.08.2017 20173108 Čistiace prostriedky KAJO, Krupa Kajo, s.r.o., M.R.Štefánika 2267, Dolný Kubín 122.52 €
28.08.2017 28.08.2017 20172808 Ročná odborná prehliadka el. náradia a spotrebičov Dušan Nemtušiak -Elekto, Tehliarska 253/5, lipt. Mikuláš 526.5 €
24.08.2017 24.08.2017 20172408 Pracovné zošity pre hudobnú náuku Martin Vozár, Bezručova 421/22, Nový Jičín, Česká republika 424.9 €
17.07.2017 17.07.2017 20171707 Tlačivá triednej dokumentácie ŠEVT a.s., Cementárenská 16, Banská Bystrica 106.5 €
30.06.2017 30.06.2017 20173006 Dodávka a montáž líšt a konzol Martin Dyrčík, Hor-Tech, Bovbrovec 302, Bobrovec 628.46 €
21.06.2017 21.06.2017 20172106 Žiacke knižky ŠEVT a.s., Ce,entárenská 16, Banská Bystrica 465.96 €
20.06.2017 20.06.2017 20172006 Violončelové struny Thomastik Rudolf Hoffmann -RH, Námestie Osloboditeľov 86/2, Lipt. Mikuláš 203.15 €
19.06.2017 19.06.2017 20171906 Husľové struny Thomastik Duo RH, s.r.o., Nám.Osloboditeľov 86/22, Lipt. Mikuláš 239.5 €
14.06.2017 14.06.2017 20171406 Oprava tečúceho potrubia Milan Danko -kúrenie voda, J.-Janošku2120/6, Lipt.Mikuláš 50 €
01.06.2017 01.06.2017 20170106 Webhosting domény zuslm.sk Liptov SK, s.r.o., Michajlov 51, Michajlov 35 €
31.05.2017 31.05.2017 20173105 Toaletný papier, Saga Gigant KAJO, Krupa Kajo, s.r.o., M.R.Štefánika 2267, Dolný Kubín 133.85 €
30.05.2017 30.05.2017 20173005 Batéria, Oprava UPS, Toner, montáž a výmena bat.,kalibrácia VOVA, s.r.o. , Borbisova 1, Lipt. Mikuláš 83.6 €
26.05.2017 26.05.2017 20172605 Čiastiace prosstriedky KAJO, Krupa Kajo, s.r.o., M.R.Štefánika 2267, Dolný Kubín 128.95 €
25.05.2017 25.05.2017 20172505 Ladenie klavírov Pianoservis, Damián Mrva, Makovického 21, Ružomberok 750 €
21.04.2017 21.04.2017 20172104 Knihy Artforum, s.r.o., Kozia 20, Bratislava 60.57 €
20.04.2017 20.04.2017 20172004 Xerox VOVA, s.r.o. , Borbisova 1, Lipt. Mikuláš 70.5 €
18.04.2017 18.04.2017 20171804 Ladenie klavírov Pianoservis, Damián Mrva, Makovického 21, Ružomberok 1250 €
10.04.2017 10.04.2017 201710045 Magnetofón Jamo, inštal.testovanie zvuk.systému VOVA, s.r.o. , Borbisova 1, Lipt. Mikuláš 399.6 €
10.04.2017 10.04.2017 20171004 Náklady za obed-kultúrna akkcia mesta Školská jedálen pri Gymnáziu, M.M:Hodžu , Lipt. Mikuláš 14.88 €
07.04.2017 07.04.2017 20170704 Knihy Artforum, s.r.o., Kozia 20, Bratislava 168.48 €
05.04.2017 05.04.2017 20170504 Inštalácia a motáž sieť.káblov, switch VOVA, s.r.o. , Borbisova 1, Lipt. Mikuláš 69.08 €
31.03.2017 31.03.2017 20173103 Stravné lístky Doxx DOXX-stravné lístky, s.r.o., Kálov 356 , Žilina 1014 €
27.03.2017 27.03.2017 20172703 Tonery, Lep. páska, optická myš, náplne do tlačiarne VOVA, s.r.o. , Borbisova 1, Lipt. Mikuláš 112.39 €
16.03.2017 16.03.2017 20171603 Modernizácia Web stránky zuslm.sk Liptov SK, s.r.o., Michajlov 51, Michajlov 200 €
08.03.2017 08.03.2017 201708032 Kvety-ruže Amalia, s.r.o., Pobrežná 469, Lipt. Mikuláš 81.2 €
08.03.2017 08.03.2017 20170803 Kvety-ruže Amalia, s.r.o., Pobrežná 469, Lipt. Mikuláš 176.1 €
06.03.2017 06.03.2017 20170603 Reflektory s prísličenstvom City Light Slovakia, s.r.o., Suchý jarok 18, Humenné 1346.44 €
00.00.0000 03.03.2017 Obj.20170303 Osvetlovacia technika City Light Slovakia, s.r.o., Suchý jarok 18, Humenné 609.12 €
24.02.2017 24.02.2017 20172402 Dodávka a montáž žalúzii Cuprajekt, Hurbanova 1496/24, Lipt. Mikuláš 384.78 €
24.02.2017 24.02.2017 20172402 Toaletný papier, Saga Gigant KAJO, Krupa Kajo, s.r.o., M.R.Štefánika 2267, Dolný Kubín 113.54 €
23.02.2017 23.02.2017 20172302 Čistiace prostriedky KAJO, Krupa Kajo, s.r.o., M.R.Štefánika 2267, Dolný Kubín 157.57 €
30.01.2017   Obj.20173001 Presťahovanie klavíra Golem , Okoličianska 824, LM 95 €
27.01.2017 26.01.2017 Objh.20170601 Príslušenstvo k hudobným nástrojom Duo RH, s.r.o., Nám.Osloboditeľov 86/22, Lipt. Mikuláš 170.08 €
27.01.2017 26.01.2017 Obj.20172601 Husľové struny Rudolf Hoffmann -RH, Námestie Osloboditeľov 86/2, Lipt. Mikuláš 126 €
24.01.2017 24.01.2017 20172401 Súprava vianočného opsvetlenia Mars , Garbiarska 905, 031 01 Lipt. Mikuláš 150 €
16.01.2017 16.01.2017 20171601 Konvektor Bella-Elektro, Borbisova 2/417, L.Mikuláš 291 €
13.01.2017 13.01.2017 Obj. 20171301 progamové vybavenie OFFICE VOVA, s.r.o. , Borbisova 1, Lipt. Mikuláš 644.4 €
© ZUŠ J. L. Bellu, Liptovský Mikuláš
Free Joomla! templates by Engine Templates